Time,TemperatureF,DewpointF,PressureIn,WindDirection,WindDirectionDegrees,WindSpeedMPH,WindSpeedGustMPH,Humidity,HourlyPrecipIn,Conditions,Clouds,dailyrainin,SoftwareType,DateUTC
2013-05-09 00:09:00,54.5,48.8,30.14,WSW,246,0.0,0.0,81,0.00,,,-99.99,Weather View 32 v60,2013-05-09 07:09:00,
2013-05-09 00:19:00,54.5,48.8,30.17,SW,225,0.0,0.0,81,0.00,,,-99.99,Weather View 32 v60,2013-05-09 07:19:00,
2013-05-09 00:29:00,54.5,48.8,30.17,West,273,0.0,0.0,81,0.00,,,-99.99,Weather View 32 v60,2013-05-09 07:29:00,
2013-05-09 00:40:00,54.5,48.8,30.17,SW,223,0.0,5.0,81,0.00,,,-99.99,Weather View 32 v60,2013-05-09 07:40:00,
2013-05-09 00:50:00,54.5,49.1,30.17,WSW,237,0.0,5.0,82,0.00,,,-99.99,Weather View 32 v60,2013-05-09 07:50:00,
2013-05-09 01:00:00,54.5,49.1,30.17,NW,317,0.0,5.0,82,0.00,,,-99.99,Weather View 32 v60,2013-05-09 08:00:00,
2013-05-09 01:10:00,54.5,49.1,30.17,WSW,241,0.0,5.0,82,0.00,,,-99.99,Weather View 32 v60,2013-05-09 08:10:00,
2013-05-09 01:15:00,54.5,49.1,30.17,WSW,241,0.0,5.0,82,0.00,,,-99.99,Weather View 32 v60,2013-05-09 08:15:00,
2013-05-09 01:29:00,54.5,49.1,30.17,West,268,0.0,5.0,82,0.00,,,-99.99,Weather View 32 v60,2013-05-09 08:29:00,
2013-05-09 01:39:00,54.5,49.1,30.17,SW,228,0.0,4.0,82,0.00,,,-99.99,Weather View 32 v60,2013-05-09 08:39:00,
2013-05-09 01:49:00,54.5,48.8,30.14,SW,231,0.0,0.0,81,0.00,,,-99.99,Weather View 32 v60,2013-05-09 08:49:00,
2013-05-09 01:59:00,54.5,48.8,30.14,WSW,243,0.0,0.0,81,0.00,,,-99.99,Weather View 32 v60,2013-05-09 08:59:00,
2013-05-09 02:09:00,54.5,48.8,30.14,SW,226,0.0,0.0,81,0.00,,,-99.99,Weather View 32 v60,2013-05-09 09:09:00,
2013-05-09 02:15:00,54.5,48.8,30.14,SW,226,0.0,0.0,81,0.00,,,-99.99,Weather View 32 v60,2013-05-09 09:15:00,
2013-05-09 02:29:00,54.5,48.8,30.14,NNW,333,0.0,0.0,81,0.00,,,-99.99,Weather View 32 v60,2013-05-09 09:29:00,
2013-05-09 02:39:00,54.5,48.8,30.14,SSW,212,0.0,0.0,81,0.00,,,-99.99,Weather View 32 v60,2013-05-09 09:39:00,
2013-05-09 02:49:00,54.5,48.4,30.14,WNW,284,0.0,0.0,80,0.00,,,-99.99,Weather View 32 v60,2013-05-09 09:49:00,
2013-05-09 02:59:00,54.3,48.6,30.14,SW,231,0.0,6.0,81,0.00,,,-99.99,Weather View 32 v60,2013-05-09 09:59:00,
2013-05-09 03:09:00,54.1,48.4,30.14,WSW,254,0.0,6.0,81,0.00,,,-99.99,Weather View 32 v60,2013-05-09 10:09:00,
2013-05-09 03:16:00,54.1,48.4,30.14,WSW,254,0.0,6.0,81,0.00,,,-99.99,Weather View 32 v60,2013-05-09 10:16:00,
2013-05-09 03:29:00,54.1,48.8,30.14,SW,228,0.0,6.0,82,0.00,,,-99.99,Weather View 32 v60,2013-05-09 10:29:00,
2013-05-09 03:39:00,54.0,48.6,30.14,WNW,293,0.0,6.0,82,0.00,,,-99.99,Weather View 32 v60,2013-05-09 10:39:00,
2013-05-09 03:49:00,54.1,48.8,30.14,West,266,0.0,6.0,82,0.00,,,-99.99,Weather View 32 v60,2013-05-09 10:49:00,
2013-05-09 03:59:00,54.1,48.8,30.14,West,266,0.0,4.0,82,0.00,,,-99.99,Weather View 32 v60,2013-05-09 10:59:00,
2013-05-09 04:09:00,54.1,48.8,30.14,West,262,0.0,0.0,82,0.00,,,-99.99,Weather View 32 v60,2013-05-09 11:09:00,
2013-05-09 04:16:00,54.1,48.8,30.14,West,262,0.0,0.0,82,0.00,,,-99.99,Weather View 32 v60,2013-05-09 11:16:00,
2013-05-09 04:29:00,54.1,48.8,30.14,SW,223,0.0,0.0,82,0.00,,,-99.99,Weather View 32 v60,2013-05-09 11:29:00,
2013-05-09 04:39:00,54.1,48.8,30.14,WSW,252,0.0,0.0,82,0.00,,,-99.99,Weather View 32 v60,2013-05-09 11:39:00,
2013-05-09 04:49:00,54.1,48.8,30.14,WSW,237,0.0,0.0,82,0.00,,,-99.99,Weather View 32 v60,2013-05-09 11:49:00,
2013-05-09 04:59:00,54.1,48.8,30.14,West,270,0.0,0.0,82,0.00,,,-99.99,Weather View 32 v60,2013-05-09 11:59:00,
2013-05-09 05:09:00,54.1,48.8,30.14,WSW,253,0.0,0.0,82,0.00,,,-99.99,Weather View 32 v60,2013-05-09 12:09:00,
2013-05-09 05:17:00,54.1,48.8,30.14,WSW,253,0.0,0.0,82,0.00,,,-99.99,Weather View 32 v60,2013-05-09 12:17:00,
2013-05-09 05:29:00,54.0,48.6,30.14,WNW,289,0.0,0.0,82,0.00,,,-99.99,Weather View 32 v60,2013-05-09 12:29:00,
2013-05-09 05:39:00,53.8,48.7,30.14,WSW,241,0.0,0.0,83,0.00,,,-99.99,Weather View 32 v60,2013-05-09 12:39:00,
2013-05-09 05:49:00,53.8,49.0,30.14,WSW,238,0.0,0.0,84,0.00,,,-99.99,Weather View 32 v60,2013-05-09 12:49:00,
2013-05-09 05:59:00,53.6,48.9,30.14,NNW,330,0.0,0.0,84,0.00,,,-99.99,Weather View 32 v60,2013-05-09 12:59:00,
2013-05-09 06:09:00,53.6,48.9,30.14,West,259,0.0,0.0,84,0.00,,,-99.99,Weather View 32 v60,2013-05-09 13:09:00,
2013-05-09 06:18:00,53.6,48.9,30.14,West,259,0.0,0.0,84,0.00,,,-99.99,Weather View 32 v60,2013-05-09 13:18:00,
2013-05-09 06:29:00,53.6,48.9,30.14,West,279,0.0,7.0,84,0.00,,,-99.99,Weather View 32 v60,2013-05-09 13:29:00,
2013-05-09 06:39:00,53.6,48.9,30.14,WSW,238,0.0,7.0,84,0.00,,,-99.99,Weather View 32 v60,2013-05-09 13:39:00,
2013-05-09 06:49:00,53.6,48.9,30.14,SW,223,0.0,7.0,84,0.00,,,-99.99,Weather View 32 v60,2013-05-09 13:49:00,
2013-05-09 06:59:00,53.8,49.0,30.14,WSW,250,0.0,7.0,84,0.00,,,-99.99,Weather View 32 v60,2013-05-09 13:59:00,
2013-05-09 07:09:00,54.0,49.2,30.14,SW,235,0.0,7.0,84,0.00,,,-99.99,Weather View 32 v60,2013-05-09 14:09:00,
2013-05-09 07:18:00,54.0,49.2,30.14,SW,235,0.0,7.0,84,0.00,,,-99.99,Weather View 32 v60,2013-05-09 14:18:00,
2013-05-09 07:29:00,54.3,49.3,30.17,SW,231,0.0,6.0,83,0.00,,,-99.99,Weather View 32 v60,2013-05-09 14:29:00,
2013-05-09 07:39:00,55.0,49.6,30.17,NE,53,0.0,0.0,82,0.00,,,-99.99,Weather View 32 v60,2013-05-09 14:39:00,
2013-05-09 07:49:00,55.6,49.2,30.17,WNW,282,0.0,0.0,79,0.00,,,-99.99,Weather View 32 v60,2013-05-09 14:49:00,
2013-05-09 07:59:00,55.9,48.5,30.17,SSW,212,0.0,0.0,76,0.00,,,-99.99,Weather View 32 v60,2013-05-09 14:59:00,
2013-05-09 08:09:00,56.3,48.1,30.17,NW,305,0.0,0.0,74,0.00,,,-99.99,Weather View 32 v60,2013-05-09 15:09:00,
2013-05-09 08:19:00,56.3,48.1,30.17,NW,305,0.0,0.0,74,0.00,,,-99.99,Weather View 32 v60,2013-05-09 15:19:00,
2013-05-09 08:29:00,57.0,48.1,30.17,West,267,0.0,5.0,72,0.00,,,-99.99,Weather View 32 v60,2013-05-09 15:29:00,
2013-05-09 08:40:00,57.6,47.8,30.17,WNW,299,0.0,5.0,70,0.00,,,-99.99,Weather View 32 v60,2013-05-09 15:40:00,
2013-05-09 08:49:00,57.7,47.6,30.17,WSW,255,0.0,5.0,69,0.00,,,-99.99,Weather View 32 v60,2013-05-09 15:49:00,
2013-05-09 08:59:00,58.6,47.7,30.17,NNW,327,0.0,5.0,67,0.00,,,-99.99,Weather View 32 v60,2013-05-09 15:59:00,
2013-05-09 09:09:00,59.4,47.2,30.17,SSW,201,0.0,5.0,64,0.00,,,-99.99,Weather View 32 v60,2013-05-09 16:09:00,
2013-05-09 09:19:00,59.9,46.8,30.17,SW,227,0.0,5.0,62,0.00,,,-99.99,Weather View 32 v60,2013-05-09 16:19:00,
2013-05-09 09:29:00,60.1,47.0,30.17,NW,315,0.0,5.0,62,0.00,,,-99.99,Weather View 32 v60,2013-05-09 16:29:00,
2013-05-09 09:39:00,60.4,46.9,30.17,WNW,287,3.0,6.0,61,0.00,,,-99.99,Weather View 32 v60,2013-05-09 16:39:00,
2013-05-09 09:49:00,61.5,47.0,30.17,North,351,0.0,7.0,59,0.00,,,-99.99,Weather View 32 v60,2013-05-09 16:49:00,
2013-05-09 09:59:00,62.4,46.9,30.17,NW,312,0.0,7.0,57,0.00,,,-99.99,Weather View 32 v60,2013-05-09 16:59:00,
2013-05-09 10:09:00,62.6,47.1,30.17,SW,233,0.0,7.0,57,0.00,,,-99.99,Weather View 32 v60,2013-05-09 17:09:00,
2013-05-09 10:20:00,63.1,47.1,30.17,NW,324,0.0,7.0,56,0.00,,,-99.99,Weather View 32 v60,2013-05-09 17:20:00,
2013-05-09 10:29:00,63.9,46.8,30.17,SW,235,7.0,8.0,54,0.00,,,-99.99,Weather View 32 v60,2013-05-09 17:29:00,
2013-05-09 10:40:00,64.0,46.5,30.17,SW,236,0.0,8.0,53,0.00,,,-99.99,Weather View 32 v60,2013-05-09 17:40:00,
2013-05-09 10:49:00,64.0,46.5,30.17,NW,304,0.0,8.0,53,0.00,,,-99.99,Weather View 32 v60,2013-05-09 17:49:00,
2013-05-09 10:59:00,64.4,46.9,30.17,SW,232,0.0,9.0,53,0.00,,,-99.99,Weather View 32 v60,2013-05-09 17:59:00,
2013-05-09 11:09:00,65.1,46.5,30.17,WSW,254,0.0,9.0,51,0.00,,,-99.99,Weather View 32 v60,2013-05-09 18:09:00,
2013-05-09 11:19:00,65.3,46.1,30.17,SW,221,3.0,9.0,50,0.00,,,-99.99,Weather View 32 v60,2013-05-09 18:19:00,
2013-05-09 11:29:00,66.2,47.5,30.17,West,262,0.0,9.0,51,0.00,,,-99.99,Weather View 32 v60,2013-05-09 18:29:00,
2013-05-09 11:39:00,67.1,46.7,30.17,West,273,0.0,9.0,48,0.00,,,-99.99,Weather View 32 v60,2013-05-09 18:39:00,
2013-05-09 11:49:00,66.9,46.0,30.17,WSW,241,0.0,9.0,47,0.00,,,-99.99,Weather View 32 v60,2013-05-09 18:49:00,
2013-05-09 11:59:00,67.8,47.4,30.17,SSW,196,0.0,9.0,48,0.00,,,-99.99,Weather View 32 v60,2013-05-09 18:59:00,
2013-05-09 12:09:00,68.4,46.1,30.14,West,266,3.0,9.0,45,0.00,,,-99.99,Weather View 32 v60,2013-05-09 19:09:00,
2013-05-09 12:19:00,68.7,46.5,30.17,West,266,0.0,9.0,45,0.00,,,-99.99,Weather View 32 v60,2013-05-09 19:19:00,
2013-05-09 12:29:00,69.3,47.0,30.17,West,262,0.0,8.0,45,0.00,,,-99.99,Weather View 32 v60,2013-05-09 19:29:00,
2013-05-09 12:39:00,69.4,46.5,30.14,South,172,0.0,11.0,44,0.00,,,-99.99,Weather View 32 v60,2013-05-09 19:39:00,
2013-05-09 12:49:00,69.6,46.7,30.14,WNW,301,0.0,11.0,44,0.00,,,-99.99,Weather View 32 v60,2013-05-09 19:49:00,
2013-05-09 12:59:00,70.7,46.4,30.14,NNW,335,0.0,11.0,42,0.00,,,-99.99,Weather View 32 v60,2013-05-09 19:59:00,
2013-05-09 13:09:00,71.1,45.5,30.14,WNW,296,0.0,11.0,40,0.00,,,-99.99,Weather View 32 v60,2013-05-09 20:09:00,
2013-05-09 13:19:00,70.9,46.6,30.14,SSW,210,0.0,12.0,42,0.00,,,-99.99,Weather View 32 v60,2013-05-09 20:19:00,
2013-05-09 13:29:00,72.1,47.1,30.14,NNW,335,0.0,12.0,41,0.00,,,-99.99,Weather View 32 v60,2013-05-09 20:29:00,
2013-05-09 13:39:00,72.5,46.7,30.14,SW,215,0.0,12.0,40,0.00,,,-99.99,Weather View 32 v60,2013-05-09 20:39:00,
2013-05-09 13:49:00,72.0,45.6,30.14,WNW,294,0.0,12.0,39,0.00,,,-99.99,Weather View 32 v60,2013-05-09 20:49:00,
2013-05-09 13:59:00,72.5,46.1,30.14,West,261,0.0,13.0,39,0.00,,,-99.99,Weather View 32 v60,2013-05-09 20:59:00,
2013-05-09 14:09:00,72.9,45.7,30.14,West,270,0.0,13.0,38,0.00,,,-99.99,Weather View 32 v60,2013-05-09 21:09:00,
2013-05-09 14:19:00,72.9,45.0,30.14,West,281,8.0,13.0,37,0.00,,,-99.99,Weather View 32 v60,2013-05-09 21:19:00,
2013-05-09 14:29:00,72.9,45.7,30.14,WSW,251,8.0,13.0,38,0.00,,,-99.99,Weather View 32 v60,2013-05-09 21:29:00,
2013-05-09 14:39:00,73.2,46.7,30.14,SW,219,4.0,13.0,39,0.00,,,-99.99,Weather View 32 v60,2013-05-09 21:39:00,
2013-05-09 14:49:00,72.5,45.4,30.14,WSW,237,0.0,13.0,38,0.00,,,-99.99,Weather View 32 v60,2013-05-09 21:49:00,
2013-05-09 14:59:00,71.8,45.4,30.14,West,263,12.0,13.0,39,0.00,,,-99.99,Weather View 32 v60,2013-05-09 21:59:00,
2013-05-09 15:09:00,70.5,45.6,30.14,SW,217,0.0,13.0,41,0.00,,,-99.99,Weather View 32 v60,2013-05-09 22:09:00,
2013-05-09 15:19:00,70.2,45.9,30.11,WNW,290,6.0,13.0,42,0.00,,,-99.99,Weather View 32 v60,2013-05-09 22:19:00,
2013-05-09 15:29:00,70.5,46.3,30.11,WNW,298,0.0,13.0,42,0.00,,,-99.99,Weather View 32 v60,2013-05-09 22:29:00,
2013-05-09 15:39:00,70.9,46.6,30.11,NNW,339,0.0,13.0,42,0.00,,,-99.99,Weather View 32 v60,2013-05-09 22:39:00,
2013-05-09 15:49:00,70.7,46.4,30.11,SSW,210,0.0,13.0,42,0.00,,,-99.99,Weather View 32 v60,2013-05-09 22:49:00,
2013-05-09 15:59:00,70.5,46.3,30.11,WNW,288,0.0,13.0,42,0.00,,,-99.99,Weather View 32 v60,2013-05-09 22:59:00,
2013-05-09 16:09:00,70.2,45.9,30.11,West,266,0.0,10.0,42,0.00,,,-99.99,Weather View 32 v60,2013-05-09 23:09:00,
2013-05-09 16:19:00,70.3,46.1,30.11,WSW,246,0.0,10.0,42,0.00,,,-99.99,Weather View 32 v60,2013-05-09 23:19:00,
2013-05-09 16:29:00,70.2,45.3,30.11,SSW,213,4.0,9.0,41,0.00,,,-99.99,Weather View 32 v60,2013-05-09 23:29:00,
2013-05-09 16:39:00,69.8,45.6,30.11,WNW,302,3.0,9.0,42,0.00,,,-99.99,Weather View 32 v60,2013-05-09 23:39:00,
2013-05-09 16:49:00,69.8,45.6,30.11,SW,229,0.0,10.0,42,0.00,,,-99.99,Weather View 32 v60,2013-05-09 23:49:00,
2013-05-09 16:59:00,69.3,45.1,30.11,WNW,303,8.0,10.0,42,0.00,,,-99.99,Weather View 32 v60,2013-05-09 23:59:00,
2013-05-09 17:09:00,68.9,45.4,30.11,NW,313,0.0,10.0,43,0.00,,,-99.99,Weather View 32 v60,2013-05-10 00:09:00,
2013-05-09 17:19:00,68.7,45.3,30.11,NW,307,0.0,10.0,43,0.00,,,-99.99,Weather View 32 v60,2013-05-10 00:19:00,
2013-05-09 17:29:00,68.7,45.9,30.11,WNW,295,0.0,10.0,44,0.00,,,-99.99,Weather View 32 v60,2013-05-10 00:29:00,
2013-05-09 17:39:00,68.4,45.5,30.11,NNW,347,0.0,10.0,44,0.00,,,-99.99,Weather View 32 v60,2013-05-10 00:39:00,
2013-05-09 17:49:00,67.6,45.5,30.11,West,273,0.0,8.0,45,0.00,,,-99.99,Weather View 32 v60,2013-05-10 00:49:00,
2013-05-09 17:59:00,67.1,45.0,30.11,NW,317,0.0,8.0,45,0.00,,,-99.99,Weather View 32 v60,2013-05-10 00:59:00,
2013-05-09 18:09:00,66.6,45.7,30.11,WSW,249,0.0,8.0,47,0.00,,,-99.99,Weather View 32 v60,2013-05-10 01:09:00,
2013-05-09 18:19:00,66.2,45.3,30.11,West,280,0.0,8.0,47,0.00,,,-99.99,Weather View 32 v60,2013-05-10 01:19:00,
2013-05-09 18:24:00,66.2,45.3,30.11,West,280,0.0,8.0,47,0.00,,,-99.99,Weather View 32 v60,2013-05-10 01:24:00,
2013-05-09 18:29:00,65.8,45.5,30.11,West,260,0.0,8.0,48,0.00,,,-99.99,Weather View 32 v60,2013-05-10 01:29:00,
2013-05-09 18:39:00,65.3,45.6,30.11,West,266,0.0,8.0,49,0.00,,,-99.99,Weather View 32 v60,2013-05-10 01:39:00,
2013-05-09 18:49:00,64.8,45.6,30.11,WNW,302,4.0,8.0,50,0.00,,,-99.99,Weather View 32 v60,2013-05-10 01:49:00,
2013-05-09 18:59:00,64.2,45.7,30.11,WSW,244,0.0,6.0,51,0.00,,,-99.99,Weather View 32 v60,2013-05-10 01:59:00,
2013-05-09 19:09:00,63.3,45.9,30.11,West,261,0.0,6.0,53,0.00,,,-99.99,Weather View 32 v60,2013-05-10 02:09:00,
2013-05-09 19:19:00,62.2,45.3,30.11,West,278,0.0,6.0,54,0.00,,,-99.99,Weather View 32 v60,2013-05-10 02:19:00,
2013-05-09 19:25:00,62.2,45.3,30.11,West,278,0.0,6.0,54,0.00,,,-99.99,Weather View 32 v60,2013-05-10 02:25:00,
2013-05-09 19:39:00,60.4,46.0,30.11,NNW,329,0.0,7.0,59,0.00,,,-99.99,Weather View 32 v60,2013-05-10 02:39:00,
2013-05-09 19:49:00,59.7,46.6,30.14,West,263,0.0,7.0,62,0.00,,,-99.99,Weather View 32 v60,2013-05-10 02:49:00,
2013-05-09 19:59:00,59.0,46.8,30.14,NW,307,0.0,7.0,64,0.00,,,-99.99,Weather View 32 v60,2013-05-10 02:59:00,
2013-05-09 20:09:00,58.1,46.8,30.14,West,260,0.0,7.0,66,0.00,,,-99.99,Weather View 32 v60,2013-05-10 03:09:00,
2013-05-09 20:19:00,57.2,47.1,30.14,SW,222,0.0,7.0,69,0.00,,,-99.99,Weather View 32 v60,2013-05-10 03:19:00,
2013-05-09 20:25:00,57.2,47.1,30.14,SW,222,0.0,7.0,69,0.00,,,-99.99,Weather View 32 v60,2013-05-10 03:25:00,
2013-05-09 20:39:00,55.9,47.4,30.14,NNW,340,0.0,7.0,73,0.00,,,-99.99,Weather View 32 v60,2013-05-10 03:39:00,
2013-05-09 20:49:00,55.6,47.4,30.17,West,264,0.0,7.0,74,0.00,,,-99.99,Weather View 32 v60,2013-05-10 03:49:00,
2013-05-09 20:59:00,55.0,47.2,30.17,WSW,257,0.0,7.0,75,0.00,,,-99.99,Weather View 32 v60,2013-05-10 03:59:00,
2013-05-09 21:09:00,55.0,47.6,30.17,WNW,290,0.0,8.0,76,0.00,,,-99.99,Weather View 32 v60,2013-05-10 04:09:00,
2013-05-09 21:19:00,54.9,48.1,30.17,SW,218,3.0,8.0,78,0.00,,,-99.99,Weather View 32 v60,2013-05-10 04:19:00,
2013-05-09 21:26:00,54.9,48.1,30.17,SW,218,3.0,8.0,78,0.00,,,-99.99,Weather View 32 v60,2013-05-10 04:26:00,
2013-05-09 21:39:00,54.3,48.3,30.17,NW,307,0.0,8.0,80,0.00,,,-99.99,Weather View 32 v60,2013-05-10 04:39:00,
2013-05-09 21:49:00,54.3,48.3,30.17,SW,221,0.0,8.0,80,0.00,,,-99.99,Weather View 32 v60,2013-05-10 04:49:00,
2013-05-09 21:59:00,54.1,48.4,30.17,SW,236,0.0,8.0,81,0.00,,,-99.99,Weather View 32 v60,2013-05-10 04:59:00,
2013-05-09 22:09:00,54.1,48.8,30.20,WSW,249,0.0,7.0,82,0.00,,,-99.99,Weather View 32 v60,2013-05-10 05:09:00,
2013-05-09 22:19:00,54.0,48.6,30.20,SSW,205,0.0,7.0,82,0.00,,,-99.99,Weather View 32 v60,2013-05-10 05:19:00,
2013-05-09 22:27:00,54.0,48.6,30.20,SSW,205,0.0,7.0,82,0.00,,,-99.99,Weather View 32 v60,2013-05-10 05:27:00,
2013-05-09 22:39:00,53.8,48.7,30.20,West,270,0.0,6.0,83,0.00,,,-99.99,Weather View 32 v60,2013-05-10 05:39:00,
2013-05-09 22:49:00,53.8,48.7,30.20,West,259,0.0,6.0,83,0.00,,,-99.99,Weather View 32 v60,2013-05-10 05:49:00,
2013-05-09 22:59:00,53.6,48.9,30.20,SW,235,0.0,5.0,84,0.00,,,-99.99,Weather View 32 v60,2013-05-10 05:59:00,
2013-05-09 23:09:00,53.4,48.4,30.20,WSW,251,0.0,0.0,83,0.00,,,-99.99,Weather View 32 v60,2013-05-10 06:09:00,
2013-05-09 23:19:00,53.4,48.4,30.20,WSW,246,0.0,0.0,83,0.00,,,-99.99,Weather View 32 v60,2013-05-10 06:19:00,
2013-05-09 23:27:00,53.4,48.4,30.20,WSW,246,0.0,0.0,83,0.00,,,-99.99,Weather View 32 v60,2013-05-10 06:27:00,